Location: Kerb�bon
(47.7970°N, 3.3487°W)
Time: 13:26:53
(UTC+00:00)

Cosmos 1238 Rocket - Pass Details

Date: 12 May 2021
Orbit: 374 x 1021 km, 82.9° (Epoch: 18 June)

Event Time Altitude Azimuth Distance (km) Brightness Sun altitude
Rises 22:55:32 0° 349° (N) 3,693 8.5 -21.8°
Reaches altitude 10° 22:58:13 10° 349° (NNW) 2,682 7.4 -21.9°
Maximum altitude 23:04:23 77° 264° (W) 881 3.7 -22.2°
Enters shadow 23:05:59 47° 190° (S) 1,077 3.8 -22.3°
